"Pseudo-MPEC" for CCT8E72

Created 2025 Jan 27 19:32:42 UT using Find_Orb

Click here for an explanation of pseudo-MPECs

 
 Astrometry: 
     CCT8E72*1C2025 01 23.29278108 47 45.930+26 14 30.50   ~1NFB       VNEOCPG96
     CCT8E72 1C2025 01 23.29812308 48 04.740+26 11 57.70   ~1NFB       VNEOCPG96
     CCT8E72 1C2025 01 23.30344008 48 23.300+26 09 22.50   ~1NFB       VNEOCPG96
     CCT8E72 1C2025 01 23.30877008 48 41.820+26 06 42.00   ~1NFB 19.80GVNEOCPG96
     CCT8E72 !C2025 01 23.35392 08 52 23.60 +25 36 49.5    ~1NFB 19.3 GVNEOCP673
     CCT8E72 KC2025 01 23.35429508 51 16.459+25 41 19.75   ~1NFB 19.71GVNEOCPI52
     CCT8E72 KC2025 01 23.35484708 51 18.342+25 41 00.13   ~1NFB 19.46GVNEOCPI52
     CCT8E72 !C2025 01 23.35535 08 52 28.44 +25 36 01.5    ~1NFB       VNEOCP673
     CCT8E72 KC2025 01 23.35539308 51 20.192+25 40 39.68   ~1NFB 19.76GVNEOCPI52
     CCT8E72 KC2025 01 23.35593708 51 22.036+25 40 20.28   ~1NFB 19.93GVNEOCPI52
     CCT8E72 KC2025 01 23.45792708 57 36.378+24 27 37.58   ~1NFB 19.22GVNEOCPI52
     CCT8E72 KC2025 01 23.45840508 57 38.351+24 27 14.11   ~1NFB 19.89GVNEOCPI52
     CCT8E72 KC2025 01 23.45937508 57 42.422+24 26 27.35   ~1NFB       VNEOCPI52
     CCT8E72 1C2025 01 24.16942010 21 16.117+14 00 04.10   ~1OLW 19.4 GXNEOCP033
     CCT8E72 1C2025 01 24.16994010 21 19.418+13 59 22.40   ~1OLW 19.5 GXNEOCP033
     CCT8E72 1C2025 01 24.17020010 21 21.067+13 59 01.10   ~1OLW 19.1 GXNEOCP033
     CCT8E72 1C2025 01 24.17072010 21 24.300+13 58 20.20   ~1OLW 19.1 GXNEOCP033
     CCT8E72 1C2025 01 24.17099010 21 26.050+13 57 57.80   ~1OLW 19.2 GXNEOCP033

Station data:
(033) Karl Schwarzschild Observatory, Tautenburg  (N50.980139 E11.711240)
   Germany.  Observer B. Stecklum. 1.34-m f/3 Schmidt + CCD.
(673) Table Mountain Observatory, Wrightwood  (N34.381485 W117.682170)
   US/California.  Observers J. Chesley, J. Pittichová. Measurer W. M. Owen
   Jr. 0.61-m f/16 reflector + CCD.
(G96) Mt. Lemmon Survey  (N32.442729 W110.788720)  US/Arizona.  Observer A.
   R. Gibbs. Measurers T. Beuden, V. F. Carvajal, D. Fay, J. B. Fazekas, D.
   C. Fuls, A. R. Gibbs, A. D. Grauer, H. Gröller, J. K. Hogan, R. A.
   Kowalski, S. M. Larson, G. J. Leonard, D. Rankin, R. L. Seaman, F. C.
   Shelly, K. W. Wierzchoś. 1.5-m reflector + 10K CCD.
(I52) Steward Observatory, Mt. Lemmon Station  (N32.442570 W110.788920)
   US/Arizona. Measurers T. Beuden, V. F. Carvajal, D. Fay, J. B. Fazekas, D.
   C. Fuls, A. R. Gibbs, A. D. Grauer, H. Gröller, J. K. Hogan, R. A.
   Kowalski, S. M. Larson, G. J. Leonard, D. Rankin, R. L. Seaman, F. C.
   Shelly, K. W. Wierzchoś. 1.0-m prime focus + CCD.

Orbital elements:  CCT8E72
   Perigee 2025 Jan 24.907468 +/- 0.000623 TT = 21:46:45.2 (JD 2460700.407468)
Epoch 2025 Jan 24.0 TT; AMR 42.186 +/- 1.84 m2/kg               Find_Orb
M 247.334277140 +/- 0.024           (J2000 equator)
n 124.153965995 +/- 0.109           Peri.  307.997879 +/- 0.017
a 85894.05539 +/- 50.4              Node     3.119164 +/- 0.0017
e   0.75511857 +/- 0.000265         Incl.   32.464079 +/- 0.0007
P4175.382m/2.900d          H 34.17  G  0.15   U 11.3
q 21033.85850 +/- 35.1    Q 150754.2522 +/- 65.8
From 18 observations 2025 Jan. 23-24 (21.1 hr); mean residual 0".397
Residuals in arcseconds: 
250123 G96 .171+ .354+    250123 I52 .184+ .106+    250123 I52 .075- .419+    
250123 G96 .262- .120+    250123 673 .058- .251-    250124 033 .472- .213+    
250123 G96 .619- .597+    250123 I52 .217+ .376-    250124 033 .061+ .108+    
250123 G96 .129- 6.3m-    250123 I52 .254+ .158+    250124 033 .280+ .379-    
250123 673 .749+ .978-    250123 I52 .439- .818+    250124 033 .278- .378+    
250123 I52 .026- .422-    250123 I52 .581- .379+    250124 033 .444+ .376-    

Ephemerides (geocentric):
Date (UTC) HH   RA             Dec           delta  r     elong SM  mag  LuElo " sig PA
---- --------  ------------   ------------  ------ ------ ----- --  ---  ----- --------
2025 01 25 00  02 16 02.933   +18 10 45.43   34890 .98451  92.9    19.0  148.3 1580  62
2025 01 25 01  03 19 35.380   +24 58 09.31   43825 .98460 108.9    19.0  163.8 1196  68
2025 01 25 02  04 05 24.348   +28 30 16.65   52347 .98468 119.6    19.0  173.6  976  73
2025 01 25 03  04 40 25.932   +30 26 44.67   60308 .98476 127.3    19.1  176.4  839  77
2025 01 25 04  05 08 21.790   +31 32 04.97   67711 .98483 133.2    19.2  172.0  747  80
2025 01 25 05  05 31 21.652   +32 07 58.91   74597 .98490 138.0    19.3  167.8  681  83
2025 01 25 06  05 50 46.754   +32 25 54.04   81010 .98496 141.9    19.3  164.3  632  86
2025 01 25 07  06 07 30.675   +32 32 18.85   86993 .98501 145.3    19.4  161.4  594  88
2025 01 25 08  06 22 10.255   +32 31 05.15   92582 .98507 148.3    19.4  158.9  564  90
2025 01 25 09  06 35 11.710   +32 24 37.49   97809 .98512 150.9    19.5  156.6  540  92
2025 01 25 10  06 46 54.239   +32 14 29.34  102699 .98516 153.2    19.5  154.7  519  93
2025 01 25 11  06 57 32.258   +32 01 42.92  107277 .98521 155.3    19.6  153.0  502  95
2025 01 25 12  07 07 16.818   +31 47 00.70  111561 .98525 157.2    19.6  151.4  488  96
2025 01 25 13  07 16 16.556   +31 30 52.22  115569 .98529 158.9    19.6  150.0  475  97
2025 01 25 14  07 24 38.332   +31 13 38.35  119315 .98532 160.5    19.6  148.8  464  98
2025 01 25 15  07 32 27.673   +30 55 33.99  122812 .98535 162.0    19.6  147.6  454  99
2025 01 25 16  07 39 49.094   +30 36 49.88  126072 .98539 163.4    19.7  146.5  446 100
2025 01 25 17  07 46 46.329   +30 17 33.80  129104 .98542 164.6    19.7  145.5  439 101
2025 01 25 18  07 53 22.496   +29 57 51.31  131916 .98544 165.8    19.7  144.6  432 102
2025 01 25 19  07 59 40.231   +29 37 46.42  134518 .98547 166.9    19.7  143.7  426 103
2025 01 25 20  08 05 41.778   +29 17 21.89  136914 .98549 167.9    19.7  142.9  420 104
2025 01 25 21  08 11 29.071   +28 56 39.60  139111 .98552 168.8    19.7  142.1  416 104
2025 01 25 22  08 17 03.785   +28 35 40.71  141115 .98554 169.6    19.7  141.4  411 105
2025 01 25 23  08 22 27.391   +28 14 25.80  142929 .98555 170.3    19.7  140.6  407 106
2025 01 26 00  08 27 41.182   +27 52 55.02  144559 .98557 170.8    19.7  140.0  404 107
2025 01 26 01  08 32 46.312   +27 31 08.14  146007 .98559 171.3    19.7  139.3  400 107
2025 01 26 02  08 37 43.815   +27 09 04.60  147276 .98560 171.6    19.7  138.7  398 108
2025 01 26 03  08 42 34.628   +26 46 43.61  148369 .98561 171.7    19.7  138.1  395 109
2025 01 26 04  08 47 19.605   +26 24 04.08  149289 .98562 171.7    19.7  137.5  393 109
2025 01 26 05  08 51 59.533   +26 01 04.73  150036 .98563 171.6    19.7  136.9  391 110
2025 01 26 06  08 56 35.143   +25 37 44.06  150613 .98564 171.4    19.7  136.3  389 110
2025 01 26 07  09 01 07.123   +25 14 00.33  151021 .98565 171.0    19.8  135.8  387 111
2025 01 26 08  09 05 36.121   +24 49 51.62  151260 .98565 170.6    19.8  135.2  386 112
2025 01 26 09  09 10 02.762   +24 25 15.76  151331 .98566 170.0    19.8  134.7  385 112
2025 01 26 10  09 14 27.649   +24 00 10.33  151233 .98566 169.4    19.8  134.1  384 113
2025 01 26 11  09 18 51.373   +23 34 32.67  150968 .98566 168.7    19.9  133.6  383 113
2025 01 26 12  09 23 14.519   +23 08 19.82  150533 .98566 167.9    19.9  133.0  383 114
2025 01 26 13  09 27 37.676   +22 41 28.49  149929 .98566 167.2    19.9  132.5  382 114
2025 01 26 14  09 32 01.438   +22 13 55.03  149154 .98565 166.3    19.9  131.9  382 115
2025 01 26 15  09 36 26.418   +21 45 35.37  148206 .98565 165.4    19.9  131.3  383 115
2025 01 26 16  09 40 53.252   +21 16 24.98  147084 .98564 164.5    20.0  130.7  383 116
2025 01 26 17  09 45 22.611   +20 46 18.77  145785 .98564 163.6    20.0  130.1  384 116
2025 01 26 18  09 49 55.207   +20 15 10.99  144307 .98563 162.6    20.0  129.4  386 117
2025 01 26 19  09 54 31.810   +19 42 55.17  142646 .98562 161.5    20.0  128.8  387 118
2025 01 26 20  09 59 13.258   +19 09 23.92  140799 .98560 160.5    20.0  128.1  389 118
2025 01 26 21  10 04 00.476   +18 34 28.81  138762 .98559 159.4    20.0  127.4  392 119
2025 01 26 22  10 08 54.495   +17 58 00.13  136529 .98557 158.2    20.0  126.6  395 119
2025 01 26 23  10 13 56.480   +17 19 46.67  134096 .98556 157.0    20.0  125.8  399 120
2025 01 27 00  10 19 07.758   +16 39 35.33  131456 .98554 155.7    20.0  124.9  403 120
2025 01 27 01  10 24 29.864   +15 57 10.71  128602 .98552 154.4    20.0  124.0  409 121
2025 01 27 02  10 30 04.589   +15 12 14.60  125527 .98549 152.9    20.0  123.0  416 121
2025 01 27 03  10 35 54.053   +14 24 25.19  122221 .98547 151.4    20.0  122.0  424 122
2025 01 27 04  10 42 00.798   +13 33 16.14  118674 .98544 149.8    19.9  120.8  434 123
2025 01 27 05  10 48 27.913   +12 38 15.26  114875 .98541 148.1    19.9  119.5  446 123
2025 01 27 06  10 55 19.213   +11 38 42.72  110811 .98538 146.3    19.9  118.1  460 124
2025 01 27 07  11 02 39.490   +10 33 48.55  106465 .98535 144.3    19.9  116.6  478 124
2025 01 27 08  11 10 34.878   +09 22 28.96  101820 .98531 142.1    19.8  114.9  501 125
2025 01 27 09  11 19 13.408   +08 03 21.17   96856 .98528 139.7    19.8  112.9  530 125
2025 01 27 10  11 28 45.858   +06 34 35.36   91549 .98523 137.1    19.7  110.7  568 125
2025 01 27 11  11 39 27.142   +04 53 42.37   85870 .98519 134.0    19.7  108.1  618 126
2025 01 27 12  11 51 38.646   +02 57 13.86   79787 .98514 130.5    19.6  105.1  685 126
2025 01 27 13  12 05 52.431   +00 40 09.30   73260 .98509 126.4    19.6  101.4  781 126
2025 01 27 14  12 22 59.297   -02 05 01.23   66245 .98504 121.4    19.5   96.9  922 126
2025 01 27 15  12 44 25.707   -05 29 59.26   58695 .98498 115.2    19.4   91.1 1141 125
2025 01 27 16  13 12 53.476   -09 53 40.24   50569 .98492 107.1    19.3   83.4 1508 124
2025 01 27 17  13 54 07.083   -15 46 39.91   41874 .98485  95.6    19.3   72.3 2192 121
2025 01 27 18  15 02 35.067   -23 46 09.27   32816 .98478  77.8    19.6   55.0 3627 114
2025 01 27 19  17 19 01.290   -32 08 22.83   24433 .98472  47.2 GA 21??   24.7 6814  97
................
